Wind_Speed
7 7 8 8 8 9 9 9 9 9 9 10 10 10 11 12 14 15 17 11 10 10 10 7 7 6 6 4 4 3 3 2 5 5 5 2 1 3 5 8 7 9 18 19 16
8 8 9 9 10 10 10 11 11 11 12 12 12 13 14 15 18 20 13 14 12 10 11 9 9 8 5 5 5 4 4 8 7 5 5 5 4 12 4 9 12 19 25 26 26
10 11 11 12 12 12 13 13 13 13 13 13 14 15 16 17 19 3 3 5 10 11 11 10 9 9 5 5 7 6 6 6 8 17 13 7 7 10 3 8 23 22 22 22 26
13 13 14 14 15 15 15 16 16 16 16 16 15 16 17 15 6 2 6 12 6 12 15 13 10 6 4 5 7 3 14 12 6 7 6 5 8 7 12 36 34 32 30 30 29
16 16 16 16 17 17 18 18 18 18 18 17 17 17 17 11 18 22 21 15 11 13 17 16 14 7 4 5 4 5 6 14 23 20 22 23 24 14 20 45 43 37 32 33 31
16 16 17 17 18 18 19 19 20 20 21 20 19 18 18 11 14 12 11 11 12 13 17 18 9 13 6 7 7 3 8 12 16 20 16 9 26 4 28 41 40 34 32 26 25
16 16 17 18 19 20 20 21 22 21 21 20 20 20 22 33 21 21 23 23 18 16 17 17 19 8 4 3 6 5 7 8 9 15 8 11 12 10 40 33 36 36 33 28 26
14 15 16 17 18 19 20 22 23 22 21 20 19 18 18 24 24 26 25 26 19 16 16 15 12 14 11 5 3 3 1 5 2 8 3 11 9 26 26 25 30 32 28 30 31
11 12 13 14 15 17 18 20 21 22 20 18 16 14 12 18 19 23 25 23 19 16 13 10 9 7 3 3 4 2 5 7 11 16 5 8 9 15 17 12 20 30 31 37 44
10 11 12 13 14 17 16 17 16 16 14 10 12 5 17 13 10 11 14 16 12 12 8 9 7 2 1 4 8 9 5 7 7 4 5 6 15 11 41 20 29 41 40 48 53
11 12 13 14 15 17 17 16 8 5 3 8 4 9 12 9 14 9 10 15 10 8 6 5 4 9 22 14 2 3 6 8 9 8 3 15 18 18 27 32 33 35 39 47 52
14 15 15 16 17 16 15 9 10 10 13 18 22 29 31 29 8 13 13 11 8 6 6 3 7 14 3 3 7 9 13 14 14 16 5 14 22 16 17 23 41 39 37 41 41
18 18 18 18 18 16 12 12 16 15 7 12 22 19 28 22 15 14 14 8 5 7 8 12 5 7 5 4 6 8 6 16 15 6 5 9 14 12 9 22 36 41 41 38 40
11 14 17 16 14 7 11 12 15 18 4 7 4 2 4 5 4 12 18 10 4 10 7 7 6 7 4 6 12 19 11 14 9 4 5 4 11 16 22 20 10 28 28 33 29
20 18 17 12 11 11 9 10 11 9 7 3 2 1 4 5 1 1 12 5 4 5 5 8 5 4 6 10 7 10 3 6 2 4 4 4 4 2 3 5 11 10 27 23 17
15 16 16 16 15 13 11 9 6 1 10 3 1 0 3 1 1 2 3 2 0 3 3 7 1 6 9 7 10 4 2 3 4 2 6 13 11 3 5 5 4 5 10 13 16
15 13 13 13 13 14 9 1 2 6 4 2 1 1 2 2 2 4 4 4 5 1 4 1 5 4 4 2 1 2 5 4 4 0 9 2 6 12 3 8 7 9 17 17 6
14 15 13 14 14 12 10 2 9 1 4 5 3 2 4 6 2 1 2 3 5 1 1 3 14 8 6 8 7 6 8 6 8 5 13 1 9 6 9 7 10 3 9 3 7
20 21 22 15 15 14 7 6 7 5 5 3 6 10 7 4 5 5 5 5 7 12 8 4 7 2 5 3 5 4 6 3 2 2 3 11 19 9 6 1 2 4 5 5 24
22 21 25 19 17 18 7 14 7 9 3 4 8 7 9 4 3 4 5 2 4 7 2 1 10 5 1 4 2 6 2 1 2 2 6 12 7 15 11 17 14 8 10 32 39
15 6 6 9 17 14 9 7 11 20 17 6 5 9 7 5 5 3 6 1 3 1 5 4 1 5 3 5 8 2 3 4 3 5 9 11 13 14 10 2 6 3 15 26 35
6 2 2 15 12 6 11 6 5 20 16 6 7 16 17 17 16 14 17 7 6 4 4 7 4 8 17 11 9 8 10 11 12 10 10 17 23 25 19 15 11 26 28 32 31
5 4 6 17 6 9 10 8 7 12 17 4 7 7 11 18 15 14 10 5 12 6 4 4 4 9 6 1 4 4 4 9 12 14 21 16 13 15 22 16 28 24 25 28 26
2 1 5 15 19 5 8 14 17 13 11 13 11 15 16 17 15 9 7 5 9 6 8 3 6 16 16 19 13 7 9 7 5 5 9 11 16 16 16 20 16 20 22 23 24
5 3 2 3 8 8 9 10 13 10 6 8 2 5 8 7 7 7 4 3 1 6 2 2 10 17 15 11 16 14 13 18 22 21 19 24 24 12 10 12 19 16 17 22 24
4 3 3 4 6 1 3 7 17 18 7 14 13 15 9 7 3 6 3 1 0 4 2 2 3 7 19 22 13 17 18 18 20 24 22 22 18 5 5 11 15 12 17 23 24
6 7 2 4 1 3 2 3 3 4 8 9 9 6 4 1 2 5 9 11 7 4 3 3 2 2 14 19 11 13 14 17 13 11 2 6 3 3 7 10 17 17 20 23 27
Wind_Direction
320 322 325 327 329 329 329 331 331 331 330 330 329 327 324 321 314 301 289 283 259 241 240 233 217 213 201 197 188 150 62 251 253 183 252 277 290 278 268 266 245 233 247 268 273
302 306 308 311 313 313 314 315 316 316 318 319 320 320 320 320 315 306 296 263 242 234 226 230 218 203 187 190 187 146 145 226 216 210 243 290 253 288 271 261 261 262 269 272 271
296 298 300 300 300 301 301 301 301 302 305 307 310 313 315 321 322 317 18 36 230 231 223 226 221 200 204 193 194 182 208 214 243 246 267 278 273 265 223 274 261 261 290 289 281
290 290 292 293 293 293 292 292 293 294 295 296 300 303 307 311 300 304 308 310 277 232 223 220 203 191 197 207 200 219 241 235 262 257 271 252 279 253 226 268 284 287 289 280 275
288 289 289 288 289 290 289 288 287 286 285 287 291 293 298 286 267 284 286 285 269 236 227 221 208 193 203 212 197 218 240 250 262 273 274 278 263 253 261 284 288 286 285 279 274
287 289 289 291 291 289 289 289 287 285 283 281 279 281 284 259 280 281 282 280 269 249 234 224 217 223 257 224 194 241 260 274 281 272 256 217 270 242 269 281 283 285 285 280 272
287 288 288 289 289 290 290 288 285 284 282 280 276 270 268 262 272 274 276 278 267 254 243 235 228 207 200 264 251 281 310 308 231 253 232 223 294 224 275 280 283 285 283 283 276
289 293 296 296 295 294 296 294 289 287 282 277 272 269 257 274 267 259 258 259 254 240 239 243 233 239 243 269 334 293 181 307 250 151 246 165 249 274 282 271 277 284 281 288 280
306 309 311 307 306 306 307 301 296 290 285 276 265 248 262 265 263 261 253 249 250 241 230 231 199 219 214 94 4 333 243 228 304 208 133 186 248 266 282 265 270 279 278 284 286
312 319 323 323 324 324 326 317 303 291 281 271 245 245 247 250 263 262 246 230 223 210 188 190 183 124 38 121 234 226 226 251 248 296 178 224 252 272 280 287 267 276 277 279 282
315 321 325 326 329 333 333 341 330 301 299 236 250 241 283 267 256 257 230 207 195 179 172 181 140 198 223 203 242 182 233 247 257 262 265 262 265 264 269 283 273 269 271 274 276
308 312 317 319 322 330 340 5 351 311 300 273 262 253 259 260 262 238 215 180 174 194 115 52 226 230 39 150 234 250 261 267 274 265 221 268 274 268 257 254 263 270 272 269 280
288 294 301 309 314 318 342 348 345 335 269 274 252 252 247 250 237 231 205 195 169 159 199 215 206 213 207 151 239 226 229 259 263 310 253 298 278 236 268 254 261 266 263 273 279
294 290 286 291 305 318 334 339 342 338 289 272 244 245 219 188 246 213 199 212 191 215 196 238 246 193 151 216 207 268 223 255 266 348 262 2 296 293 276 265 248 268 273 280 288
286 284 288 299 290 298 314 317 335 343 292 273 207 199 171 176 97 348 195 207 204 186 145 239 178 159 183 222 148 239 206 243 188 205 327 216 250 359 84 259 265 263 273 285 312
273 276 277 283 289 291 295 314 313 45 251 307 99 21 111 216 199 117 158 185 44 178 225 242 270 176 214 212 189 89 67 45 48 76 269 199 200 13 153 204 311 296 270 325 345
272 266 268 266 271 284 279 319 307 228 332 312 296 120 312 238 253 180 153 179 202 240 241 235 216 240 190 188 124 141 95 308 317 354 251 290 224 236 233 233 207 253 287 315 37
276 275 259 254 261 267 276 111 227 317 288 342 341 40 221 173 219 109 107 260 228 163 189 223 289 183 170 194 185 187 170 173 233 247 287 76 248 257 211 237 250 301 275 261 16
279 274 266 258 255 247 220 227 252 196 191 212 330 294 285 280 194 175 227 236 216 185 214 206 263 218 211 144 147 174 178 220 287 36 285 268 279 279 249 218 286 47 267 356 340
277 271 269 273 246 224 221 240 237 220 319 273 243 204 251 225 193 192 178 189 275 199 320 277 295 239 266 134 180 171 213 39 356 235 256 277 292 260 303 297 309 357 7 325 327
275 262 239 197 202 196 232 232 254 249 258 266 279 284 266 265 231 228 244 243 237 104 174 75 243 263 340 193 191 148 234 228 296 214 238 259 267 270 263 325 300 311 339 335 337
185 242 209 184 192 210 234 215 223 269 266 266 259 258 265 275 275 270 266 226 232 180 189 213 199 243 257 240 196 194 232 232 248 257 238 250 252 287 296 297 335 22 33 11 13
203 253 194 190 226 227 247 269 257 261 263 270 253 233 257 265 273 249 258 270 277 195 235 186 220 264 283 1 30 197 225 247 278 280 259 262 268 276 298 343 16 18 24 17 9
202 271 225 215 233 267 264 265 263 256 258 246 255 264 266 266 264 256 264 318 348 338 339 180 250 254 268 276 309 272 273 314 304 271 288 269 298 303 357 346 19 17 17 16 12
199 234 203 218 235 254 252 276 278 279 231 326 247 240 286 281 281 260 269 308 8 24 78 19 267 272 289 308 297 290 277 281 271 268 266 285 280 308 5 348 339 343 3 7 5
207 210 231 283 292 274 223 242 258 271 273 277 267 282 271 264 287 309 15 141 4 355 351 124 275 328 296 287 288 286 281 270 272 274 270 266 275 35 5 338 343 332 337 347 346
232 232 234 267 144 125 234 293 3 18 60 58 43 357 338 333 348 277 258 252 246 257 243 272 238 322 278 288 323 297 259 263 265 283 275 262 49 340 330 338 330 314 311 323 334
Height
1550 1550 1549 1548 1548 1547 1546 1545 1544 1543 1542 1541 1540 1539 1537 1536 1534 1533 1531 1532 1532 1532 1533 1533 1534 1535 1536 1537 1538 1539 1549 1555 1543 1540 1529 1523 1523 1521 1520 1519 1518 1517 1514 1513 1512
1550 1549 1548 1547 1546 1546 1545 1544 1543 1542 1541 1540 1539 1537 1535 1534 1531 1529 1529 1527 1528 1530 1531 1532 1532 1533 1534 1535 1536 1537 1549 1541 1529 1527 1524 1522 1522 1520 1519 1516 1513 1512 1511 1510 1509
1549 1548 1547 1546 1545 1544 1543 1542 1541 1540 1539 1538 1537 1536 1534 1532 1530 1525 1525 1524 1526 1528 1529 1530 1531 1532 1533 1534 1533 1534 1537 1527 1523 1522 1522 1520 1517 1516 1515 1511 1505 1506 1506 1506 1504
1547 1546 1545 1544 1543 1542 1541 1540 1539 1538 1537 1536 1535 1534 1532 1531 1536 1525 1524 1524 1525 1525 1526 1527 1529 1531 1531 1531 1529 1532 1524 1522 1519 1519 1519 1517 1514 1511 1512 1498 1500 1500 1501 1499 1499
1545 1544 1543 1541 1540 1539 1538 1537 1536 1535 1534 1533 1533 1532 1530 1528 1524 1523 1523 1522 1522 1522 1523 1524 1526 1528 1529 1528 1527 1526 1520 1518 1515 1515 1514 1514 1506 1506 1503 1494 1493 1494 1494 1491 1491
1542 1541 1540 1539 1538 1536 1535 1533 1532 1531 1530 1530 1529 1529 1528 1525 1520 1520 1520 1520 1519 1520 1520 1521 1522 1524 1524 1523 1523 1518 1517 1515 1512 1510 1510 1508 1497 1503 1491 1488 1486 1486 1485 1484 1483
1539 1538 1537 1536 1534 1533 1532 1530 1528 1527 1526 1525 1525 1524 1523 1515 1517 1517 1517 1516 1516 1517 1517 1518 1520 1521 1520 1519 1517 1517 1518 1511 1504 1502 1503 1503 1503 1496 1480 1485 1481 1479 1478 1477 1477
1536 1535 1534 1533 1531 1529 1528 1525 1523 1522 1521 1520 1520 1519 1514 1510 1510 1509 1510 1511 1511 1513 1515 1516 1518 1520 1519 1518 1517 1518 1519 1519 1496 1497 1498 1501 1504 1472 1479 1479 1475 1474 1473 1472 1471
1534 1533 1532 1530 1528 1526 1525 1521 1519 1517 1516 1516 1516 1516 1510 1503 1503 1504 1505 1505 1507 1509 1511 1513 1516 1518 1518 1523 1526 1523 1525 1520 1508 1490 1495 1498 1494 1472 1473 1474 1472 1469 1469 1467 1465
1533 1532 1531 1529 1527 1525 1523 1519 1515 1513 1512 1513 1512 1517 1506 1500 1499 1499 1500 1502 1504 1505 1509 1513 1513 1517 1521 1524 1529 1521 1525 1517 1513 1491 1493 1494 1487 1477 1468 1470 1466 1461 1459 1456 1453
1532 1531 1530 1528 1526 1524 1521 1519 1518 1514 1510 1508 1508 1504 1500 1499 1498 1496 1498 1500 1502 1505 1508 1508 1516 1516 1500 1507 1504 1509 1513 1512 1499 1490 1492 1485 1477 1475 1468 1461 1454 1451 1448 1441 1438
1530 1529 1528 1527 1525 1523 1521 1521 1521 1520 1509 1502 1499 1497 1496 1496 1496 1494 1496 1499 1500 1505 1507 1513 1514 1502 1502 1506 1511 1511 1510 1505 1490 1486 1491 1483 1465 1465 1461 1453 1441 1437 1437 1433 1432
1528 1527 1526 1525 1524 1522 1521 1522 1520 1516 1511 1495 1489 1486 1488 1488 1488 1490 1493 1494 1495 1501 1503 1502 1498 1496 1503 1505 1506 1506 1512 1497 1495 1489 1486 1480 1452 1452 1442 1442 1436 1429 1427 1430 1430
1523 1524 1523 1523 1526 1521 1520 1520 1519 1516 1513 1495 1484 1483 1485 1486 1486 1485 1488 1491 1492 1494 1498 1498 1491 1493 1501 1504 1497 1496 1492 1490 1493 1498 1498 1482 1466 1446 1439 1434 1433 1423 1422 1422 1423
1520 1521 1521 1520 1521 1522 1521 1519 1520 1518 1521 1488 1485 1484 1483 1486 1488 1486 1487 1488 1489 1492 1494 1489 1490 1492 1496 1491 1492 1488 1486 1490 1490 1497 1497 1489 1496 1432 1430 1435 1428 1422 1417 1419 1422
1516 1515 1517 1517 1519 1520 1519 1519 1520 1525 1507 1486 1485 1485 1484 1484 1485 1486 1487 1490 1490 1489 1490 1489 1485 1485 1480 1478 1481 1479 1485 1492 1501 1499 1496 1479 1478 1447 1434 1427 1425 1421 1419 1421 1421
1513 1510 1513 1513 1513 1516 1518 1517 1521 1509 1487 1485 1485 1486 1486 1485 1484 1484 1487 1489 1493 1491 1491 1482 1480 1475 1475 1478 1482 1484 1488 1506 1505 1514 1477 1462 1472 1435 1419 1419 1418 1418 1417 1420 1422
1509 1510 1507 1510 1512 1514 1516 1515 1516 1498 1494 1487 1486 1486 1486 1483 1483 1486 1488 1490 1485 1487 1492 1486 1475 1471 1471 1471 1475 1485 1486 1497 1500 1499 1458 1465 1454 1426 1414 1411 1413 1416 1417 1418 1418
1504 1504 1503 1507 1509 1512 1515 1510 1495 1493 1486 1486 1487 1489 1488 1484 1483 1489 1490 1487 1479 1479 1480 1485 1479 1465 1465 1465 1467 1479 1484 1473 1478 1500 1499 1446 1419 1414 1410 1412 1413 1415 1417 1419 1418
1498 1497 1494 1499 1505 1507 1508 1493 1492 1487 1484 1485 1487 1488 1485 1481 1483 1483 1481 1475 1477 1474 1472 1473 1476 1463 1460 1464 1466 1468 1471 1478 1485 1483 1489 1447 1446 1417 1417 1418 1417 1416 1419 1419 1415
1494 1492 1488 1490 1497 1500 1495 1486 1485 1484 1490 1490 1481 1480 1476 1477 1476 1475 1476 1471 1472 1473 1474 1472 1479 1466 1461 1463 1462 1469 1470 1472 1472 1467 1458 1456 1432 1407 1414 1416 1418 1421 1419 1417 1416
1488 1493 1487 1489 1494 1488 1482 1481 1483 1482 1484 1483 1482 1477 1477 1477 1473 1474 1471 1470 1470 1470 1472 1476 1472 1472 1459 1452 1450 1452 1453 1457 1460 1453 1447 1432 1419 1395 1408 1412 1418 1422 1422 1417 1418
1488 1485 1486 1487 1486 1483 1477 1477 1480 1480 1479 1479 1478 1474 1475 1475 1474 1464 1464 1462 1467 1468 1466 1469 1469 1461 1457 1453 1455 1452 1448 1448 1447 1443 1439 1439 1423 1414 1404 1416 1430 1431 1425 1420 1419
1488 1485 1485 1483 1480 1482 1480 1475 1474 1473 1473 1473 1471 1473 1473 1471 1469 1463 1465 1465 1466 1470 1467 1468 1458 1459 1450 1445 1447 1450 1448 1453 1458 1452 1432 1430 1430 1429 1436 1433 1439 1436 1434 1429 1424
1485 1484 1482 1480 1477 1476 1479 1476 1472 1474 1471 1471 1471 1469 1470 1468 1467 1463 1461 1466 1464 1466 1467 1466 1456 1456 1454 1461 1462 1457 1457 1455 1449 1443 1443 1433 1424 1424 1443 1443 1437 1435 1435 1433 1426
1484 1484 1481 1478 1477 1477 1476 1472 1470 1467 1471 1466 1471 1466 1470 1469 1469 1467 1474 1470 1470 1471 1472 1469 1466 1463 1458 1451 1453 1449 1442 1437 1436 1430 1424 1425 1421 1443 1445 1444 1442 1436 1430 1427 1426
1483 1481 1480 1476 1475 1475 1475 1473 1473 1471 1472 1474 1477 1474 1471 1474 1473 1474 1477 1476 1476 1472 1475 1474 1473 1477 1457 1447 1456 1449 1432 1427 1422 1422 1431 1428 1438 1444 1440 1438 1438 1433 1430 1424 1419